4XPDC LFLJ-LFNA

Flight info

Callsign 4XPDC
Flight time N/A
Altitude 26000
Route LFKX DCT 4528N00632E 4529N00631E 4532N00628E 4539N00626E 4540N00624E DCT LFKA DCT 4541N00624E 4544N00625E 4546N00629E 4548N00629E 4550N00634E 4551N00638E/N0309F250 DCT LFHM/N0308F260 DCT 4552N00638E 4555N00640E 4602N00637E 4604N00632E 4605N00625E/N0306F270 DCT LFLP/N0307F260 DCT LFHN/N0306F270 DCT 4558N00550E 4550N00548E 4542N00553E DCT LFLE DCT 4529N00602E DCT LFLG DCT 4512N00542E 4506N00542E 4503N00546E/N0309F260 4503N00551E 4506N00556E 4507N00558E 4507N00601E 4508N00603E/N0307F270 DCT LFHU DCT 4503N00608E 4502N00612E/N0309F260 4503N00619E/N0307F270 4502N00622E/N0309F260 4502N00625E 4502N00626E/N0307F270 DCT 4459N00629E 4455N00637E 4454N00638E 4451N00635E 4447N00633E 4442N00636E 4440N00637E 4435N00631E 4433N00629E 4431N00620E 4434N00614E DCT 4435N00607E
Aircraft B350/L-SBGRW/S

Departure

Time N/A
Airport Courchevel Altiport (LFLJ)

Arrival

Time 2026-05-03 20:23
Airport Gap-Tallard Airfield (LFNA)
Time Latitude Longitude Altitude Speed Heading
2026-05-03 20:15 44.59749 6.53299 6263 ft 263 kts 221°
2026-05-03 20:15 44.58367 6.51647 6044 ft 264 kts 220°
2026-05-03 20:15 44.56892 6.50163 6025 ft 258 kts 215°
2026-05-03 20:15 44.55556 6.48545 6040 ft 253 kts 232°
2026-05-03 20:16 44.54646 6.46458 6039 ft 251 kts 247°
2026-05-03 20:16 44.54112 6.44136 6033 ft 250 kts 254°
2026-05-03 20:16 44.53587 6.41810 6033 ft 250 kts 253°
2026-05-03 20:16 44.53059 6.39492 6032 ft 250 kts 253°
2026-05-03 20:17 44.52547 6.37167 6036 ft 250 kts 253°
2026-05-03 20:17 44.52258 6.34779 6039 ft 250 kts 271°
2026-05-03 20:17 44.52519 6.32362 6034 ft 252 kts 288°
2026-05-03 20:17 44.53280 6.30169 6034 ft 252 kts 304°
2026-05-03 20:18 44.53988 6.27940 6001 ft 252 kts 280°
2026-05-03 20:18 44.53878 6.25520 6032 ft 249 kts 257°
2026-05-03 20:18 44.53506 6.23290 5958 ft 223 kts 259°
2026-05-03 20:18 44.53342 6.21183 5597 ft 212 kts 267°
2026-05-03 20:19 44.53302 6.19189 5375 ft 198 kts 269°
2026-05-03 20:19 44.53255 6.17234 5185 ft 203 kts 268°
2026-05-03 20:19 44.53204 6.15247 5020 ft 204 kts 269°
2026-05-03 20:19 44.53164 6.13369 4796 ft 183 kts 269°
2026-05-03 20:20 44.53114 6.11643 4444 ft 174 kts 269°
2026-05-03 20:20 44.52940 6.10006 4108 ft 166 kts 249°
2026-05-03 20:20 44.52345 6.08697 3929 ft 152 kts 226°
2026-05-03 20:20 44.51579 6.07911 3856 ft 124 kts 206°
2026-05-03 20:21 44.50779 6.07395 3794 ft 131 kts 207°
2026-05-03 20:21 44.49972 6.06812 3578 ft 126 kts 208°
2026-05-03 20:21 44.49212 6.06285 3317 ft 119 kts 206°
2026-05-03 20:21 44.48455 6.05771 3063 ft 120 kts 207°
2026-05-03 20:22 44.47729 6.05268 2797 ft 114 kts 207°
2026-05-03 20:22 44.47012 6.04782 2471 ft 115 kts 206°
2026-05-03 20:22 44.46242 6.04257 2173 ft 131 kts 206°
2026-05-03 20:22 44.45477 6.03731 2003 ft 114 kts 206°
2026-05-03 20:23 44.45109 6.03485 1990 ft 39 kts 206°
2026-05-03 20:23 44.45038 6.03348 1983 ft 17 kts 311°
2026-05-03 20:23 44.45091 6.03346 1988 ft 9 kts 24°
2026-05-03 20:23 44.45158 6.03396 1987 ft 13 kts 24°
2026-05-03 20:24 44.45245 6.03453 1990 ft 15 kts 28°
2026-05-03 20:24 44.45333 6.03496 1994 ft 9 kts 303°
2026-05-03 20:24 44.45377 6.03460 1996 ft 10 kts 26°
2026-05-03 20:24 44.45421 6.03492 1991 ft 4 kts 76°
2026-05-03 20:25 44.45417 6.03506 1992 ft 0 kts 120°